Location: *
(45.9500°N, 9.0833°E)
Time: 01:23:51
(UTC+00:00)

SR - Pass Details

Date: 19 June 2021
Orbit: 577 x 878 km, 66.7° (Epoch: 23 July)

Event Time Altitude Azimuth Distance (km) Brightness Sun altitude
Rises 19:05:30 0° 289° (WNW) 3,467 ? 0.9°
Reaches altitude 10° 19:10:11 10° 322° (NW) 2,498 ? 0.2°
Maximum altitude 19:11:57 11° 340° (NNW) 2,385 ? 0.0°
Drops below altitude 10° 19:13:43 10° 358° (N) 2,460 ? -0.3°
Sets 19:18:12 0° 32° (NNE) 3,326 ? -0.9°
